This is the latest recevied weather packets stored in our database for station/object KB3KAV. If no packets are shown the sender has not sent any weather packets the latest 1 day(s).
| Time | Temp. | Humidity | Pressure | Rain* | Wind** | Luminosity | Snow |
|---|---|---|---|---|---|---|---|
| 1778037778 | 12.22° C | 88% | 1037.7 hPa | 0 mm | 0 m/s | 0 W/m² | - |
| 1778037178 | 12.22° C | 88% | 1037.5 hPa | 0 mm | 0 m/s | 0 W/m² | - |
| 1778036574 | 12.78° C | 87% | 1037.4 hPa | 0 mm | 0 m/s | 0 W/m² | - |
| 1778035973 | 12.78° C | 86% | 1037.4 hPa | 0 mm | 0 m/s | 0 W/m² | - |
| 1778035372 | 13.33° C | 85% | 1037.4 hPa | 0 mm | 0 m/s | 0 W/m² | - |
| 1778034771 | 13.33° C | 85% | 1037.4 hPa | 0 mm | 0 m/s | 0 W/m² | - |
| 1778034166 | 13.89° C | 84% | 1037.3 hPa | 0 mm | 0 m/s | 0 W/m² | - |
| 1778033566 | 13.89° C | 83% | 1037.3 hPa | 0 mm | 0 m/s | 0 W/m² | - |
| 1778032966 | 14.44° C | 82% | 1037.3 hPa | 0 mm | 0 m/s | 0 W/m² | - |
| 1778032373 | 15° C | 81% | 1037.5 hPa | 0 mm | 0 m/s | 0 W/m² | - |
| 1778031760 | 15° C | 80% | 1037.3 hPa | 0 mm | 0 m/s | 0 W/m² | - |
| 1778031160 | 15.56° C | 78% | 1037.2 hPa | 0 mm | 0 m/s | 0 W/m² | - |
| 1778030559 | 16.11° C | 78% | 1037.2 hPa | 0 mm | 0 m/s | 0 W/m² | - |
| 1778029958 | 16.11° C | 75% | 1036.9 hPa | 0 mm | 0 m/s | 0 W/m² | - |
| 1778029353 | 16.67° C | 75% | 1036.7 hPa | 0 mm | 0 m/s | 0 W/m² | - |
| 1778028753 | 16.67° C | 73% | 1036.8 hPa | 0 mm | 0 m/s | 0 W/m² | - |
| 1778028153 | 17.22° C | 72% | 1036.5 hPa | 0 mm | 0 m/s | 0 W/m² | - |
| 1778027551 | 17.78° C | 71% | 1036.5 hPa | 0 mm | 0 m/s | 0 W/m² | - |
| 1778026949 | 17.78° C | 69% | 1036.5 hPa | 0 mm | 0 m/s | 0 W/m² | - |
| 1778026349 | 18.33° C | 68% | 1036.5 hPa | 0 mm | 0 m/s | 0 W/m² | - |
| 1778025743 | 19.44° C | 64% | 1036.3 hPa | 0 mm | 0 m/s | 0 W/m² | - |
| 1778025144 | 20° C | 61% | 1036.1 hPa | 0 mm | 0 m/s | 3 W/m² | - |
| 1778024543 | 20.56° C | 58% | 1036.1 hPa | 0 mm | 0.45 m/s, 87° | 6 W/m² | - |
| 1778023938 | 20.56° C | 58% | 1035.8 hPa | 0 mm | 0.45 m/s, 67° | 0 W/m² | - |
| 1778023338 | 21.11° C | 55% | 1035.8 hPa | 0 mm | 0.45 m/s, 79° | 5 W/m² | - |
* Rain latest hour (hover to see other rain measurements)
** Current wind speed in m/s (hover to see current wind gust speed)